GEFSNGP_850_meantemp_072.txt.gz
Temperature
24 23 23 23 22 22 21 21 21 21 21 21 20 20 19 18 18 17 17 17 16 15 15 15 14 13 13 13 12 12 11 11 11 11 11 11 11 11 11 11 11 12 12 12
24 23 23 23 23 22 22 22 21 21 21 22 20 20 19 19 18 18 17 17 16 16 15 15 15 14 13 13 12 12 11 11 11 11 11 11 11 11 11 11 11 11 12 12
24 24 23 23 24 23 22 22 22 21 22 21 21 20 20 19 18 18 17 16 16 16 15 15 15 14 14 13 13 12 11 11 11 11 11 11 11 11 11 11 11 11 11 11
24 24 23 24 25 24 23 23 23 23 22 22 21 20 19 19 19 18 17 16 16 15 15 15 15 14 14 13 13 12 11 11 11 11 11 11 11 11 11 11 11 11 11 11
24 24 25 23 24 24 23 23 24 23 22 22 21 20 19 19 18 18 17 16 16 15 15 15 14 14 14 14 13 12 11 11 11 11 11 11 11 11 10 11 11 11 11 11
23 23 24 24 24 24 23 22 24 23 23 22 21 19 20 19 18 18 17 16 16 15 15 15 14 14 14 14 13 12 11 11 11 11 11 11 11 10 10 10 10 11 11 11
22 23 25 24 23 23 22 23 24 23 23 22 21 20 20 19 18 17 17 16 16 15 15 15 14 14 14 13 13 12 11 11 11 11 11 11 11 11 10 10 10 10 11 11
23 23 24 23 22 23 24 24 23 23 22 22 21 20 20 19 18 17 17 16 16 15 15 15 14 14 14 13 13 12 11 11 11 11 11 11 11 11 11 10 10 10 10 10
25 25 24 23 23 24 24 24 23 23 22 21 21 20 19 19 18 17 17 16 16 16 15 15 14 14 14 13 13 12 12 12 11 11 11 11 11 11 11 11 10 10 10 10
25 25 25 24 24 24 23 23 23 22 22 21 21 20 19 19 18 18 17 16 16 16 16 15 15 14 14 13 13 13 12 12 12 11 11 11 11 11 11 11 11 10 10 10
25 25 25 25 24 23 23 22 22 22 21 21 20 20 19 19 18 18 17 17 16 16 16 16 15 14 14 14 13 13 13 13 12 12 11 11 11 11 11 11 11 11 11 11
24 26 26 26 24 23 23 22 22 21 21 20 20 20 19 19 19 18 18 17 16 16 16 16 15 15 14 14 14 13 13 13 13 12 12 11 11 11 11 11 11 11 11 11
26 26 25 25 24 23 22 22 21 21 21 20 20 20 19 19 19 18 18 17 17 16 16 16 15 15 15 14 14 13 13 13 13 12 12 12 11 11 11 11 11 11 11 11
25 24 24 24 23 23 22 22 21 20 20 20 20 19 19 19 19 18 18 17 17 16 16 16 15 15 15 14 14 14 13 13 13 12 12 12 12 11 11 11 11 11 11 11
24 23 23 23 23 22 22 22 21 20 20 20 19 19 19 19 18 18 18 17 17 16 16 16 15 15 15 14 14 14 13 13 13 13 12 12 12 12 12 12 11 11 11 11
22 23 22 22 22 22 22 21 21 21 20 20 19 19 19 18 18 18 17 17 17 16 16 16 15 15 15 15 14 14 13 13 13 13 12 12 12 12 12 12 12 12 12 11
19 20 20 21 21 21 21 21 21 21 20 20 20 19 19 18 18 18 17 17 17 16 16 16 15 15 15 14 14 14 13 13 13 13 13 12 12 12 12 12 12 12 12 12
17 17 18 19 20 20 21 21 21 20 20 20 20 19 19 18 18 17 17 17 16 16 16 16 15 15 15 14 14 14 13 13 13 13 13 13 12 12 12 12 12 12 12 12
15 16 16 17 18 19 20 20 20 20 20 20 20 19 19 18 18 17 17 17 16 16 16 16 15 15 15 14 14 14 14 13 13 13 13 13 12 12 12 12 12 12 12 12
13 14 14 15 16 17 18 19 20 20 20 20 20 19 19 18 18 17 17 17 16 16 16 16 15 15 15 14 14 14 14 13 13 13 13 13 12 12 12 12 12 12 12 12
11 12 13 13 14 16 16 17 18 19 19 19 19 19 19 18 18 17 17 17 16 16 16 16 15 15 15 14 14 14 14 13 13 13 13 13 12 12 12 12 12 12 12 12
10 11 11 12 13 14 15 16 17 18 18 19 19 19 18 18 18 17 17 17 16 16 16 16 15 15 15 14 14 14 14 14 13 13 13 13 13 12 12 12 12 12 12 12
9 10 10 11 12 12 14 15 15 16 17 17 18 18 18 17 17 17 17 17 16 16 16 15 15 15 15 14 14 14 14 14 13 13 13 13 13 13 12 12 12 12 12 12
8 9 9 9 10 11 12 12 13 14 15 16 16 16 17 17 17 17 17 16 16 16 15 15 15 15 15 14 14 14 14 14 14 13 13 13 13 13 13 12 12 12 12 12
7 8 8 8 8 9 9 10 11 12 13 14 14 15 15 15 16 16 16 16 16 15 15 15 15 15 14 14 14 14 14 14 13 13 13 13 13 13 13 13 12 12 12 12
7 7 7 7 7 7 8 8 9 9 10 11 12 12 13 14 14 14 15 15 15 15 15 14 14 14 14 14 14 14 13 13 13 13 13 13 13 13 13 13 13 13 12 12
6 6 6 6 6 6 6 7 7 7 8 9 9 10 11 11 12 12 13 13 13 13 13 13 14 14 14 14 14 13 13 13 13 13 13 13 13 13 13 12 12 12 12 12

GEFSNGP_850_meantemp_078.txt.gz
Temperature
18 20 19 19 19 19 17 16 15 16 16 16 15 15 17 17 17 16 16 16 15 15 14 14 14 13 13 12 12 12 12 11 11 11 11 11 11 11 11 11 11 11 12 12
20 20 20 20 19 18 18 18 17 17 17 16 17 17 17 17 17 16 16 16 15 15 15 14 14 13 13 13 12 12 12 11 11 11 11 11 11 11 11 11 11 11 12 12
17 19 20 19 19 18 18 18 17 17 16 16 15 16 17 17 17 17 16 16 16 15 15 14 14 14 13 13 12 12 12 11 11 11 11 11 11 11 11 11 11 11 11 11
16 19 19 19 19 19 19 19 18 18 17 17 18 19 19 18 18 17 16 16 16 15 15 14 14 14 13 13 12 12 12 11 11 11 11 11 11 11 11 11 11 11 11 11
15 18 18 19 20 20 19 19 18 18 17 18 19 18 18 18 18 17 17 16 16 15 15 15 14 14 13 13 12 12 12 11 11 11 11 11 11 11 11 11 11 11 11 11
16 18 19 19 21 21 20 19 19 19 18 18 17 14 16 19 18 18 17 17 16 16 15 15 14 14 13 13 12 12 12 11 11 11 11 11 11 11 11 11 11 11 11 11
16 17 17 18 21 21 19 19 21 21 20 19 18 18 20 19 18 18 17 17 16 16 15 15 15 14 14 13 13 12 12 11 11 11 11 11 11 11 11 11 11 11 11 11
14 16 17 20 20 18 19 22 22 22 21 21 21 20 20 19 19 18 17 17 17 16 16 15 15 14 14 13 13 12 12 12 11 11 11 11 11 11 11 11 11 11 11 11
15 17 20 22 22 24 23 23 23 22 22 21 21 20 20 19 19 18 18 17 17 16 16 16 15 15 14 14 13 13 12 12 12 11 11 11 11 11 11 11 11 11 11 11
17 18 21 23 23 23 23 23 23 22 22 22 21 20 20 19 19 18 18 18 17 17 16 16 16 15 15 14 14 13 13 12 12 12 12 11 11 11 11 11 11 11 11 11
19 18 21 23 23 24 23 23 23 22 22 22 21 20 20 19 19 19 18 18 18 17 17 16 16 16 15 14 14 13 13 13 12 12 12 12 11 11 11 11 11 11 11 11
17 20 19 22 23 23 23 23 22 22 22 21 21 21 20 20 19 19 18 18 18 17 17 17 16 16 15 15 14 14 13 13 13 12 12 12 11 11 11 11 11 11 11 11
18 20 21 22 23 23 23 22 22 22 22 21 21 21 20 20 19 19 19 18 18 18 18 17 17 16 16 15 15 14 14 13 13 13 12 12 12 11 11 11 11 11 11 11
19 20 20 20 21 21 22 22 22 22 21 21 21 20 20 20 19 19 19 19 18 18 18 17 17 16 16 15 15 14 14 14 13 13 12 12 12 12 11 11 11 11 11 11
17 18 18 19 20 20 21 21 21 21 21 20 20 20 20 19 19 19 19 19 18 18 18 17 17 17 16 16 15 15 14 14 13 13 13 12 12 12 12 12 11 11 11 11
15 17 18 18 18 18 19 19 19 19 20 20 20 20 20 19 19 19 19 19 18 18 18 17 17 17 16 16 15 15 15 14 14 13 13 12 12 12 12 12 12 12 12 11
14 14 14 15 15 16 16 17 17 17 18 19 19 19 19 19 19 19 19 19 18 18 18 18 17 17 16 16 16 15 15 14 14 13 13 13 12 12 12 12 12 12 12 12
12 12 12 12 13 14 15 16 16 17 17 17 18 19 19 19 19 19 19 19 18 18 18 18 17 17 16 16 16 15 15 14 14 14 13 13 13 12 12 12 12 12 12 12
11 11 12 12 13 13 14 14 15 15 16 16 17 18 18 18 19 19 19 19 18 18 18 18 17 17 17 16 16 15 15 14 14 14 13 13 13 13 12 12 12 12 12 12
10 10 11 11 12 12 12 13 14 14 15 15 16 17 17 18 18 18 18 18 18 18 18 18 17 17 17 16 16 15 15 14 14 14 13 13 13 13 13 12 12 12 12 12
9 9 9 10 10 10 11 11 12 13 13 14 14 15 15 16 17 17 17 18 18 18 18 18 17 17 17 16 16 15 15 15 14 14 14 13 13 13 13 13 12 12 12 12
8 8 8 8 9 9 9 10 10 11 11 12 12 13 14 15 15 16 16 16 17 17 17 17 17 17 16 16 16 15 15 15 14 14 14 13 13 13 13 13 12 12 12 12
8 7 7 8 8 8 8 9 9 9 9 10 10 11 11 12 13 13 14 15 16 16 16 17 17 17 16 16 16 15 15 15 14 14 14 13 13 13 13 13 13 12 12 12
7 7 7 7 7 7 7 7 7 8 8 8 9 9 10 10 11 12 12 13 14 15 16 16 16 16 16 16 16 15 15 15 14 14 14 13 13 13 13 13 13 12 12 12
6 6 6 6 6 6 6 6 6 7 7 7 8 8 8 8 9 10 10 11 12 14 14 15 15 15 15 15 15 15 15 14 14 14 14 13 13 13 13 13 13 12 12 12
6 6 6 6 6 6 6 5 5 6 6 6 6 6 7 7 8 8 9 10 10 11 12 13 13 14 14 14 14 14 14 14 14 13 13 13 13 13 13 13 12 12 12 12
6 6 6 6 6 6 5 5 5 5 5 5 5 5 5 6 6 7 7 8 9 9 10 11 11 12 12 12 13 13 13 13 13 13 12 12 12 12 12 12 12 12 12 12

GEFSNGP_850_meantemp_084.txt.gz
Temperature
17 18 17 17 17 15 14 14 14 14 14 14 14 14 16 17 16 16 16 15 15 15 14 14 14 13 13 12 12 12 11 11 11 11 11 11 11 11 11 11 11 11 11 11
18 18 18 18 17 16 15 15 14 14 14 14 16 16 16 16 17 16 16 16 15 15 15 14 14 13 13 13 12 12 11 11 11 11 11 11 11 11 11 11 11 11 11 11
16 17 18 18 17 16 16 15 15 15 15 15 15 15 17 17 17 17 17 16 16 15 15 14 14 14 13 13 12 12 12 11 11 11 11 11 11 11 11 11 11 11 11 11
14 17 19 18 18 17 17 16 15 15 15 16 17 18 19 19 18 18 17 17 16 15 15 15 14 14 13 13 12 12 12 11 11 11 11 11 11 11 11 11 11 11 11 11
13 16 16 18 18 17 18 18 17 15 16 17 17 17 18 19 19 18 18 17 16 16 15 15 14 14 13 13 13 12 12 12 11 11 11 11 11 11 11 11 11 11 11 11
13 17 18 18 19 19 19 19 19 18 17 17 16 14 16 20 19 19 18 17 16 16 15 15 15 14 14 13 13 12 12 12 11 11 11 11 11 11 11 11 11 11 11 11
14 16 15 16 18 19 19 18 20 20 19 18 17 17 20 20 20 19 18 17 17 16 16 15 15 14 14 14 13 13 12 12 12 11 11 11 11 11 11 11 11 11 11 11
12 15 17 18 17 17 18 21 21 21 21 20 21 21 20 20 19 19 18 18 17 16 16 16 15 15 14 14 14 13 13 12 12 11 11 11 11 11 11 11 11 11 11 11
13 16 18 18 18 20 20 20 21 21 21 21 21 20 20 20 19 19 18 18 17 17 16 16 16 15 15 14 14 13 13 13 12 12 11 11 11 11 11 11 11 11 11 11
13 15 17 18 18 19 20 20 21 21 21 21 21 21 20 20 20 19 19 18 18 17 17 17 16 16 15 15 14 14 13 13 13 12 12 11 11 11 11 11 11 11 11 11
14 14 17 19 18 19 20 21 21 21 21 21 21 21 20 20 20 19 19 18 18 18 17 17 17 16 16 15 14 14 14 13 13 12 12 12 12 11 11 11 11 11 11 11
14 14 13 16 16 18 19 20 20 21 21 20 20 20 20 20 20 19 19 18 18 18 18 17 17 17 16 16 15 15 14 14 13 13 12 12 12 12 11 11 11 11 11 11
13 14 14 15 16 17 18 19 19 20 20 20 20 20 19 19 19 19 19 18 18 18 18 18 17 17 17 16 16 15 15 14 14 13 13 12 12 12 12 11 11 11 11 11
13 14 14 14 15 16 17 18 18 19 18 18 19 19 19 19 19 19 19 19 18 18 18 18 18 17 17 16 16 16 15 15 14 14 13 13 12 12 12 12 12 11 11 11
13 14 13 14 15 15 16 17 18 18 18 18 18 18 18 18 18 18 18 18 18 18 18 18 18 18 17 17 16 16 16 15 15 14 14 13 13 12 12 12 12 12 11 11
12 13 13 14 14 14 15 15 16 15 15 16 16 16 17 17 17 18 18 18 18 18 18 18 17 18 17 17 17 16 16 16 15 15 14 14 13 13 12 12 12 12 12 12
12 12 12 12 12 12 13 13 13 13 14 14 14 15 15 16 17 17 17 17 17 17 17 17 17 17 17 17 17 17 16 16 15 15 14 14 14 13 13 12 12 12 12 12
11 11 10 11 11 11 11 11 12 12 12 12 13 14 14 15 15 15 15 16 16 17 16 16 16 17 17 17 17 16 16 16 16 15 15 14 14 13 13 13 12 12 12 12
10 10 9 9 10 10 10 10 10 10 11 11 12 12 12 13 13 13 14 14 15 15 16 16 16 16 16 16 16 16 16 16 16 15 15 15 14 14 13 13 13 12 12 12
9 9 9 9 9 9 9 9 9 9 10 10 10 11 11 11 12 12 12 13 12 12 13 14 14 15 15 16 16 16 16 16 16 15 15 15 14 14 14 13 13 13 12 12
8 8 8 8 8 8 8 8 8 8 8 9 9 9 9 9 10 10 11 11 11 12 12 13 13 14 14 14 15 15 15 15 15 15 15 15 14 14 14 14 13 13 13 12
8 8 8 7 7 7 7 7 7 7 7 7 8 8 8 8 8 9 9 9 9 10 11 11 12 12 12 13 14 14 14 15 15 15 15 15 14 14 14 14 13 13 13 13
7 7 7 7 7 7 6 6 6 6 6 6 6 6 6 6 7 7 7 8 8 8 9 9 10 10 11 12 13 13 13 13 13 14 14 14 14 14 14 13 13 13 13 13
7 6 6 6 6 6 6 6 6 6 6 6 6 5 5 6 6 6 6 6 7 7 7 8 8 9 10 10 11 11 12 12 12 12 12 13 13 13 13 13 13 13 13 13
6 6 6 6 6 6 5 5 5 5 5 5 5 5 5 5 5 5 5 5 6 6 6 6 7 7 8 8 9 9 10 10 10 11 11 11 12 12 12 12 12 12 12 12
6 6 6 6 6 5 5 5 5 5 5 5 5 5 5 5 4 4 5 5 5 5 5 5 5 6 6 6 7 7 8 8 9 9 9 10 10 11 11 11 12 12 12 12
6 6 6 6 5 5 5 5 5 5 5 5 5 5 4 4 4 4 4 4 4 4 4 4 4 5 5 5 5 6 6 6 7 7 8 8 9 9 10 10 10 11 11 11

GEFSNGP_850_meantemp_090.txt.gz
Temperature
23 22 22 22 22 21 21 22 22 23 23 23 23 22 21 20 19 18 17 17 16 16 15 15 14 14 13 13 12 12 12 12 11 11 11 11 11 11 11 11 11 11 11 11
23 22 22 22 22 22 21 22 22 22 22 24 22 21 21 20 19 18 18 17 17 16 16 15 15 14 13 13 12 12 12 12 11 11 11 11 11 11 11 11 11 11 11 11
23 22 22 23 23 22 22 22 22 22 23 23 22 21 21 20 19 19 18 17 17 17 16 16 15 14 14 13 13 12 12 12 12 11 11 11 11 11 11 11 11 11 11 11
23 23 22 24 23 23 23 23 23 23 23 22 22 21 20 20 19 19 18 17 17 17 16 16 15 14 14 13 13 13 12 12 12 11 11 11 11 11 11 11 11 11 11 11
23 23 23 24 23 22 23 23 24 23 23 22 20 20 21 20 19 19 18 18 17 17 16 16 15 15 14 14 13 13 13 12 12 12 12 12 11 11 11 11 11 11 11 11
22 22 23 24 23 22 23 23 24 23 22 22 21 23 23 20 19 19 18 18 17 17 16 16 15 15 14 14 14 13 13 12 12 12 12 12 12 11 11 11 11 11 11 11
22 23 24 23 21 21 23 24 22 22 22 21 22 23 21 19 19 19 18 18 17 17 16 16 15 15 15 14 14 13 13 13 13 12 12 12 12 12 11 11 11 11 11 11
22 22 23 21 21 23 23 22 21 21 21 20 20 20 19 19 19 19 19 18 18 17 16 16 16 15 15 15 14 14 14 13 13 13 12 12 12 12 11 11 11 11 11 11
23 23 21 19 20 19 18 19 19 20 19 19 19 19 19 18 18 18 18 18 18 17 17 16 16 16 15 15 15 14 14 14 13 13 13 12 12 12 11 11 11 11 11 11
22 22 20 18 17 17 17 17 18 18 18 18 18 19 18 18 18 18 18 18 18 17 17 16 16 16 16 15 15 15 14 14 14 13 13 13 13 12 12 11 11 11 11 11
22 22 19 17 16 16 16 16 17 17 18 18 18 18 18 18 18 18 18 18 18 17 17 17 16 16 16 16 16 15 15 14 14 14 13 13 13 13 12 12 12 11 11 11
23 21 21 19 16 16 16 16 16 17 17 18 18 18 18 18 18 18 18 18 18 17 17 16 16 16 16 16 16 15 15 14 14 14 14 14 13 13 13 13 13 12 12 12
19 17 17 15 15 15 15 16 16 16 17 17 17 17 17 17 17 17 17 17 17 17 17 16 16 16 16 16 16 16 15 15 15 14 14 14 14 13 13 13 13 13 12 12
15 15 15 14 14 15 15 15 15 15 16 16 16 16 17 16 16 17 17 17 17 16 16 16 16 16 16 16 16 16 15 15 15 15 15 14 14 13 13 13 12 12 12 12
14 14 14 13 14 14 14 14 14 14 15 15 15 15 16 15 15 15 16 16 16 16 15 15 15 15 15 15 15 15 15 15 15 15 15 14 14 14 13 13 13 13 12 12
13 13 13 13 13 13 13 13 13 13 14 14 14 14 14 14 14 14 14 15 15 14 14 14 14 15 15 15 15 15 15 15 15 15 14 14 14 14 14 13 13 13 13 12
13 12 12 12 12 12 12 12 12 12 12 12 13 13 13 13 13 13 13 13 13 13 13 13 13 13 14 14 14 14 14 14 14 15 14 14 14 14 13 13 13 13 13 13
13 13 13 12 12 11 11 11 11 11 11 11 11 11 12 12 12 12 11 11 11 12 12 12 12 12 12 13 13 13 13 13 13 13 13 13 13 13 13 13 13 13 13 13
11 11 11 11 10 10 10 10 10 10 10 10 10 10 10 10 10 10 10 10 10 10 10 10 11 11 11 11 12 12 12 12 12 12 12 12 12 12 13 13 13 13 13 13
10 10 10 9 9 9 9 9 9 9 9 9 9 9 9 9 9 9 8 9 9 8 9 9 9 9 9 10 10 11 11 11 11 11 11 11 11 11 12 12 12 12 12 12
9 9 8 8 8 8 8 8 8 8 8 8 8 8 8 8 8 8 8 8 7 8 8 8 8 8 8 9 9 9 9 9 9 9 9 10 10 10 11 11 11 12 12 12
8 8 8 8 8 7 7 7 7 7 7 7 7 7 7 7 7 7 7 6 6 7 7 6 7 7 7 7 7 8 8 8 8 8 8 8 8 9 9 10 10 10 11 11
8 7 7 7 7 7 6 6 6 6 6 6 6 6 6 6 6 6 6 6 6 6 6 5 6 6 6 6 6 6 6 6 6 6 6 7 7 7 8 8 8 9 9 10
7 7 7 7 6 6 6 6 6 6 6 6 6 6 6 6 5 5 5 5 5 5 5 5 5 5 5 5 5 5 5 5 5 5 5 6 6 6 6 7 7 7 8 8
7 7 6 6 6 6 6 6 5 5 5 5 5 5 5 5 5 5 5 5 5 5 4 4 5 5 4 4 4 4 4 4 4 4 4 4 5 5 5 5 6 6 6 7
6 6 6 6 6 6 5 5 5 5 5 5 5 5 5 5 5 4 4 4 4 4 4 4 4 4 4 4 4 4 4 4 4 4 4 4 4 4 4 4 5 5 5 6
6 6 6 6 5 5 5 5 5 5 5 5 5 5 5 4 4 4 4 4 4 4 4 4 4 4 4 3 3 3 3 3 3 3 3 3 3 3 3 4 4 4 4 4

GEFSNGP_850_meantemp_096.txt.gz
Temperature
27 27 26 26 26 25 24 24 24 25 25 25 25 25 24 23 22 22 21 20 20 19 18 18 17 16 16 15 15 14 14 14 13 13 13 13 12 12 12 12 12 12 12 12
26 27 26 26 26 26 25 25 25 25 25 26 25 25 24 23 23 22 21 20 20 19 19 18 17 17 16 15 15 15 14 14 13 13 13 13 12 12 12 12 12 12 12 12
25 26 26 25 26 25 25 25 25 24 25 26 25 25 24 23 23 22 21 20 20 19 19 18 18 17 16 16 15 15 14 14 14 13 13 13 13 12 12 12 12 12 12 12
25 25 24 26 27 27 26 26 26 26 26 26 25 24 24 23 22 22 21 20 20 19 19 18 18 17 17 16 16 15 15 14 14 13 13 13 13 13 13 12 12 12 12 12
25 25 26 26 26 26 26 25 26 26 26 26 25 24 23 23 22 21 21 20 19 19 18 18 18 17 17 17 16 15 15 14 14 13 13 13 13 13 13 12 12 12 12 12
24 24 25 26 27 27 26 25 26 26 26 25 25 23 23 22 21 21 20 19 19 18 18 18 17 17 17 17 16 16 15 14 14 14 13 13 13 13 13 12 12 12 12 12
23 24 25 26 26 25 24 24 26 26 25 25 24 23 22 22 21 20 20 19 18 18 18 17 17 17 17 17 16 16 15 15 14 14 14 14 13 13 13 13 13 13 12 12
24 23 24 25 25 25 25 25 25 25 24 24 23 22 22 21 20 20 19 19 18 18 17 17 17 17 16 16 16 16 15 15 14 14 14 14 13 13 13 13 13 13 12 12
25 24 24 25 25 24 24 24 24 23 23 23 22 22 21 21 20 19 19 18 18 17 17 17 17 16 16 16 16 15 15 15 15 14 14 14 14 14 13 13 13 13 13 12
25 25 24 24 23 23 23 23 22 22 22 22 22 21 21 21 20 19 19 18 18 17 17 17 17 16 16 16 16 15 15 15 15 15 14 14 14 14 14 13 13 13 13 13
25 25 24 23 23 22 22 22 21 21 21 21 21 20 20 20 19 19 18 18 17 17 17 17 16 16 16 16 16 15 15 15 15 15 15 15 15 14 14 14 14 14 13 13
24 25 24 23 22 21 21 21 21 20 20 20 20 19 19 19 18 18 18 17 17 17 16 16 16 16 16 16 16 15 15 15 15 15 15 15 15 15 14 14 14 14 14 14
25 25 24 23 22 21 20 20 20 19 19 19 18 18 18 18 17 17 17 17 16 16 16 16 16 16 16 16 15 15 15 15 14 14 14 14 14 14 14 14 14 14 14 14
24 23 22 21 20 20 20 19 19 18 18 18 17 17 17 17 16 16 16 16 15 15 15 15 15 15 15 15 15 15 14 14 14 14 14 14 14 14 14 14 14 14 14 14
22 22 21 21 20 19 19 18 18 18 17 16 16 16 16 16 15 15 15 14 14 14 14 14 14 14 14 14 14 14 14 13 13 14 14 14 14 14 14 14 14 14 14 14
21 20 20 19 19 18 18 18 17 17 16 16 15 15 15 14 14 14 13 13 13 13 13 13 13 13 13 13 13 13 13 13 13 13 13 13 13 13 13 14 14 14 14 14
20 19 19 18 18 18 18 17 17 16 15 15 14 14 14 13 13 12 12 12 12 12 12 12 12 12 12 12 12 12 12 12 12 12 12 12 12 12 13 13 13 13 14 14
20 19 19 18 17 17 17 16 16 15 14 13 13 13 13 12 12 12 11 11 11 11 11 11 11 10 11 11 11 11 11 10 11 11 11 11 11 11 12 12 12 12 13 13
18 18 18 17 17 16 16 15 14 14 13 12 12 12 12 11 11 11 11 11 10 10 10 10 10 10 10 10 10 10 10 9 9 9 10 10 10 10 11 11 11 11 11 12
16 16 16 16 15 15 14 14 13 12 12 12 11 11 11 10 10 10 10 10 9 9 8 9 9 9 9 9 9 9 8 8 8 8 8 8 8 9 9 9 9 10 10 10
14 14 14 14 13 13 12 12 12 11 11 11 11 10 10 10 9 9 9 8 8 8 8 8 8 8 8 8 8 7 7 7 7 7 7 7 7 7 7 7 8 8 8 8
13 12 12 12 12 11 11 11 11 10 10 10 10 10 9 9 9 8 8 8 7 7 7 7 7 7 7 7 6 6 6 6 6 6 6 6 6 6 6 6 6 6 6 7
12 11 11 11 11 10 10 10 10 9 9 9 9 9 9 8 8 8 7 7 7 7 7 6 6 6 6 6 6 6 6 6 6 5 5 5 5 5 5 5 5 5 5 5
11 11 10 10 10 10 10 9 9 9 9 8 8 8 8 8 7 7 7 7 7 6 6 6 6 6 6 5 6 5 5 5 5 5 5 4 4 4 4 4 4 4 4 4
10 10 10 10 10 9 9 9 8 8 8 8 8 8 8 7 7 7 7 6 6 6 6 5 5 5 5 5 5 5 5 5 4 4 4 4 4 4 4 4 3 3 3 3
10 9 9 9 9 9 8 8 8 8 8 8 7 7 7 7 7 6 6 6 6 6 6 5 5 5 5 5 5 5 4 4 4 4 4 4 4 3 3 3 3 3 3 3
9 9 8 8 8 8 8 8 8 8 8 7 7 7 7 6 6 6 6 6 6 6 5 5 5 5 5 5 4 4 4 4 4 4 3 3 3 3 3 3 2 2 2 2

GEFSNGP_850_meantemp_102.txt.gz
Temperature
20 21 21 21 21 21 20 18 18 19 19 20 19 18 20 21 20 20 19 19 19 18 18 17 17 16 16 16 15 15 14 14 14 13 13 13 13 13 13 13 13 12 12 12
21 22 22 22 21 20 20 20 19 20 20 20 20 21 20 20 20 20 20 19 19 19 18 18 17 17 16 16 15 15 15 14 14 14 13 13 13 13 13 13 13 13 12 12
19 20 21 21 21 20 20 20 20 20 19 20 19 19 20 21 21 20 20 20 19 19 18 18 17 17 16 16 16 15 15 15 14 14 14 14 13 13 13 13 13 13 13 12
18 20 21 20 20 21 21 21 20 20 20 19 20 22 22 22 21 21 20 20 19 19 19 18 17 17 17 16 16 15 15 15 14 14 14 14 14 13 13 13 13 13 13 13
17 18 19 20 22 21 21 21 20 20 20 21 21 20 20 21 22 21 21 20 20 19 19 18 18 17 17 16 16 16 15 15 15 14 14 14 14 14 13 13 13 13 13 13
16 19 19 20 21 23 22 21 21 20 20 20 20 17 18 21 21 21 20 20 19 19 18 18 17 17 17 16 16 16 15 15 15 15 14 14 14 14 14 14 13 13 13 13
16 17 18 19 22 22 20 20 22 22 22 21 20 20 22 21 21 21 20 20 19 19 18 18 17 17 17 16 16 16 15 15 15 15 15 14 14 14 14 14 13 13 13 13
15 17 18 20 22 20 20 22 23 23 23 23 23 22 22 21 21 20 20 19 19 18 18 17 17 17 17 16 16 16 16 15 15 15 15 14 14 14 14 14 14 14 13 13
16 18 20 22 23 24 24 23 23 23 23 23 22 22 21 21 20 20 20 19 18 18 18 17 17 17 17 16 16 16 16 15 15 15 15 15 14 14 14 14 14 14 14 13
17 17 20 22 23 24 24 24 24 23 23 23 22 22 21 20 20 20 19 19 18 18 17 17 17 16 16 16 16 16 15 15 15 15 15 15 14 14 14 14 14 14 14 14
17 18 20 21 22 23 23 23 23 23 22 22 22 21 21 20 20 19 19 18 18 17 17 17 16 16 16 16 16 15 15 15 15 15 15 14 14 14 14 14 14 14 14 13
17 19 18 21 23 23 23 22 22 22 22 21 21 21 20 20 19 19 18 18 18 17 17 16 16 16 16 15 15 15 15 15 15 14 14 14 14 14 14 14 14 14 13 13
22 23 22 23 23 22 22 22 22 22 21 21 21 20 20 19 19 18 18 18 17 17 16 16 16 15 15 15 15 15 15 14 14 14 14 14 13 13 14 14 14 14 13 13
22 22 21 22 22 22 22 21 21 21 20 20 20 19 19 19 18 18 17 17 16 16 16 15 15 15 15 14 14 14 14 13 13 13 13 13 13 13 13 13 13 13 13 13
21 21 22 22 21 21 21 20 20 20 19 19 19 18 18 18 17 17 16 16 16 15 15 15 14 14 14 14 13 13 13 13 13 12 12 12 12 12 12 12 12 12 12 13
20 21 21 21 21 20 20 19 19 19 18 18 18 17 17 17 17 16 15 15 15 15 14 14 14 13 13 13 13 13 12 12 12 12 11 11 11 11 11 11 11 11 11 11
19 19 19 19 19 19 19 19 19 18 18 17 17 17 16 16 15 15 14 14 14 14 13 13 13 12 12 12 12 12 12 11 11 11 11 10 10 10 10 10 10 10 10 10
19 19 20 20 19 19 19 18 18 18 17 17 16 16 15 15 15 14 13 13 13 12 12 12 12 12 11 11 11 11 11 10 10 10 9 9 9 9 9 9 9 9 9 9
18 18 18 18 18 18 18 18 17 17 16 16 15 15 14 14 14 13 12 12 12 12 11 11 11 11 10 10 10 10 9 9 9 8 8 8 8 8 8 8 8 8 8 8
17 17 17 17 17 17 17 17 16 16 15 15 14 14 13 13 12 12 11 11 11 11 10 10 10 10 9 9 9 9 8 8 8 7 7 7 7 7 7 6 6 6 6 6
15 15 16 16 16 16 16 15 15 15 14 14 13 13 13 12 11 11 11 10 10 9 9 9 9 9 8 8 8 8 7 7 7 7 6 6 6 6 6 6 5 5 5 5
14 14 14 14 14 14 14 14 14 13 13 12 12 12 11 11 10 10 10 10 9 9 8 8 8 8 7 7 7 7 7 6 6 6 6 5 5 5 5 5 5 4 4 4
12 13 13 13 13 13 12 12 12 12 12 12 11 11 11 10 10 10 9 9 8 8 8 7 7 7 7 6 6 6 6 6 5 5 5 5 5 5 4 4 4 4 4 4
11 11 12 12 12 12 11 11 11 11 11 11 10 10 10 9 9 9 8 8 8 7 7 7 6 6 6 6 6 6 5 5 5 5 4 4 4 4 4 4 3 3 3 3
10 11 11 11 11 11 10 10 10 10 9 9 9 9 9 9 8 8 8 7 7 7 6 6 6 6 6 5 5 5 5 5 4 4 4 4 4 4 3 3 3 3 3 3
10 10 10 10 10 10 10 9 9 9 9 8 8 8 8 8 8 7 7 7 6 6 6 6 5 5 5 5 5 5 4 4 4 4 4 4 3 3 3 3 3 2 2 2
9 9 9 9 9 9 9 9 9 8 8 8 8 7 7 7 7 7 6 6 6 6 5 5 5 5 5 5 4 4 4 4 4 4 3 3 3 3 2 2 2 2 2 2